N8VIM Weather Reports


time (UTC)temp
C
wind
direction
speed
KPH
gust
KPH
rain 1hr
cm
rain 24hr
cm
rain mn
cm
humidity
%
barometer
mb
20260905191223 22 0 0.0 0.0 361.95 0.00 0.03 71 1011.2
20260905190723 22 69 0.0 6.4 361.95 0.00 0.03 71 1011.1
20260905190224 22 128 3.2 3.2 361.95 0.00 0.03 72 1011.2
20260905185723 22 0 0.0 0.0 361.95 0.00 0.03 73 1011.2
20260905185223 22 0 0.0 0.0 361.95 0.00 0.03 71 1011.2
20260905184725 22 0 0.0 0.0 361.95 0.00 0.03 70 1011.3
20260905184223 22 0 0.0 0.0 361.95 0.00 0.03 69 1011.2
20260905183723 23 66 0.0 4.8 361.95 0.00 0.03 67 1011.2
20260905183225 23 129 0.0 3.2 361.95 0.00 0.03 66 1011.1
20260905182723 23 58 1.6 4.8 361.92 0.00 0.00 64 1011.1
20260905182223 22 48 3.2 3.2 361.92 0.00 0.00 65 1011.2
20260905181724 22 229 0.0 3.2 361.92 0.00 0.00 65 1011.2
20260905181223 22 260 0.0 4.8 361.92 0.00 0.00 66 1011.1
20260905180224 22 0 0.0 0.0 361.92 0.00 0.00 65 1011.2
20260905175723 22 0 0.0 0.0 361.92 0.00 0.00 72 1011.3
20260905175223 22 0 0.0 0.0 361.92 0.00 0.00 69 1011.2
20260905174724 22 0 0.0 0.0 361.92 0.00 0.00 68 1011.2
20260905174223 22 0 0.0 0.0 361.92 0.00 0.00 69 1011.2
20260905173723 22 0 0.0 0.0 361.92 0.00 0.00 69 1011.2
20260905173224 22 148 0.0 3.2 361.92 0.00 0.00 70 1011.2
20260905172223 22 288 0.0 9.7 361.92 0.00 0.00 67 1011.0
20260905171725 22 0 0.0 0.0 361.92 0.00 0.00 66 1010.9
20260905171223 22 82 0.0 3.2 361.92 0.00 0.00 66 1010.9
20260905170224 22 53 0.0 3.2 361.92 0.00 0.00 70 1011.0
20260905165723 21 0 0.0 0.0 361.92 0.00 0.00 75 1011.0
20260905165223 22 0 0.0 0.0 361.92 0.00 0.00 73 1011.1
20260905164724 22 0 0.0 0.0 361.92 0.00 0.00 72 1011.1
20260905164223 22 304 0.0 1.6 361.92 0.00 0.00 69 1011.1
20260905163723 22 21 0.0 1.6 361.92 0.00 0.00 67 1011.0
20260905163224 22 3 0.0 3.2 361.92 0.00 0.00 67 1011.0
20260905162723 22 316 1.6 3.2 361.92 0.00 0.00 67 1011.0
20260905161724 22 295 0.0 1.6 361.92 0.00 0.00 71 1011.0
20260905161223 22 302 0.0 6.4 361.92 0.00 0.00 71 1011.0
20260905160723 22 30 1.6 3.2 361.92 0.00 0.00 70 1011.0
20260905160224 22 277 1.6 3.2 361.92 0.00 0.00 69 1011.0
20260905155723 22 135 0.0 6.4 361.92 0.00 0.00 68 1011.1
20260905155223 22 113 1.6 1.6 361.92 0.00 0.00 67 1011.0
20260905154724 22 76 0.0 4.8 361.92 0.00 0.00 68 1011.0
20260905153724 22 73 0.0 4.8 361.92 0.00 0.00 71 1011.1
20260905153224 21 30 1.6 6.4 361.92 0.00 0.00 70 1011.2
20260905152723 21 301 3.2 4.8 361.92 0.00 0.00 70 1011.2
20260905152223 21 252 1.6 6.4 361.92 0.00 0.00 69 1011.1
20260905151724 21 103 0.0 3.2 361.92 0.00 0.00 72 1011.2
20260905151223 21 146 0.0 3.2 361.92 0.00 0.00 71 1011.2
20260905150723 21 108 0.0 8.0 361.92 0.00 0.00 71 1011.2
20260905150224 21 6 0.0 4.8 361.92 0.00 0.00 72 1011.2
20260905145723 21 240 1.6 4.8 361.92 0.00 0.00 72 1011.2
20260905145223 21 121 0.0 4.8 361.92 0.00 0.00 72 1011.1
20260905144724 21 183 1.6 4.8 361.92 0.00 0.00 71 1011.2
20260905143723 21 136 1.6 3.2 361.92 0.00 0.00 74 1011.2
20260905143224 21 231 0.0 4.8 361.92 0.00 0.00 74 1011.2
20260905142723 21 193 3.2 3.2 361.92 0.00 0.00 73 1011.3
20260905142223 21 240 0.0 4.8 361.92 0.00 0.00 74 1011.3
20260905141724 21 300 1.6 4.8 361.92 0.00 0.00 74 1011.3
20260905141224 21 293 0.0 9.7 361.92 0.00 0.00 75 1011.3
20260905140723 21 114 0.0 3.2 361.92 0.00 0.00 77 1011.3
20260905140224 20 277 0.0 3.2 361.92 0.00 0.00 75 1011.3
20260905135223 20 146 3.2 4.8 361.92 0.00 0.00 77 1011.2
20260905134724 20 110 0.0 6.4 361.92 0.00 0.00 77 1011.2
20260905133736 20 290 3.2 9.7 361.92 0.00 0.00 76 1011.1
20260905133224 19 243 3.2 4.8 361.92 0.00 0.00 80 1011.0
20260905132723 19 169 1.6 3.2 361.92 0.00 0.00 81 1011.0
20260905132223 19 312 0.0 4.8 361.92 0.00 0.00 82 1011.0
20260905131724 18 0 0.0 0.0 361.92 0.00 0.00 82 1011.0
20260905131223 18 242 0.0 1.6 361.92 0.00 0.00 83 1010.9
20260905130723 18 24 0.0 3.2 361.92 0.00 0.00 82 1010.8
20260905130224 18 316 0.0 3.2 361.92 0.00 0.00 83 1010.7
20260905125723 18 319 0.0 1.6 361.92 0.00 0.00 83 1010.7
20260905125223 18 276 1.6 1.6 361.92 0.00 0.00 84 1010.7
20260905124723 18 278 0.0 4.8 361.92 0.00 0.00 84 1010.7
20260905124223 18 309 0.0 8.0 361.92 0.00 0.00 86 1010.7
20260905123723 18 68 0.0 3.2 361.92 0.00 0.00 88 1010.6
20260905123223 17 277 0.0 4.8 361.92 0.00 0.00 89 1010.6
20260905122223 17 240 0.0 1.6 361.92 0.00 0.00 93 1010.4
20260905121724 17 0 0.0 0.0 361.92 0.00 0.00 93 1010.4
20260905121223 17 0 0.0 0.0 361.92 0.00 0.00 94 1010.2
20260905120723 17 0 0.0 0.0 361.92 0.00 0.00 94 1010.2
20260905120223 16 0 0.0 0.0 361.92 0.00 0.00 95 1010.3
20260905115723 16 0 0.0 0.0 361.92 0.00 0.00 95 1010.2
20260905115223 16 0 0.0 0.0 361.92 0.00 0.00 95 1010.1
20260905114723 16 0 0.0 0.0 361.92 0.00 0.00 95 1010.1
20260905113228 16 0 0.0 0.0 361.92 0.00 0.00 96 1010.0
20260905112723 16 0 0.0 0.0 361.92 0.00 0.00 96 1010.0
20260905112223 15 0 0.0 0.0 361.92 0.00 0.00 96 1010.0
20260905111729 15 287 0.0 8.0 361.92 0.00 0.00 97 1010.0
20260905111223 15 290 4.8 4.8 361.92 0.00 0.00 97 1010.1
20260905110723 15 281 3.2 4.8 361.92 0.00 0.00 98 1010.0
20260905110227 15 287 3.2 6.4 361.92 0.00 0.00 97 1010.0
20260905105723 15 0 0.0 0.0 361.92 0.00 0.00 97 1009.9
20260905104723 15 288 0.0 4.8 361.92 0.00 0.00 97 1009.9
20260905104223 15 0 0.0 0.0 361.92 0.00 0.00 97 1009.9
20260905103723 15 0 0.0 0.0 361.92 0.00 0.00 97 1009.9
20260905103223 15 0 0.0 0.0 361.92 0.00 0.00 97 1009.9
20260905102223 15 0 0.0 0.0 361.92 0.00 0.00 97 1009.9
20260905101723 15 0 0.0 0.0 361.92 0.00 0.00 97 1009.8
20260905101223 15 0 0.0 0.0 361.92 0.00 0.00 97 1009.8
20260905100723 15 0 0.0 0.0 361.92 0.00 0.00 97 1009.8
20260905100223 15 0 0.0 0.0 361.92 0.00 0.00 97 1009.8
20260905095723 15 0 0.0 0.0 361.92 0.00 0.00 97 1009.8
20260905095223 15 301 0.0 6.4 361.92 0.00 0.00 97 1009.7
20260905094723 15 284 4.8 6.4 361.92 0.00 0.00 97 1009.7
20260905094223 15 281 3.2 6.4 361.92 0.00 0.00 97 1009.6
20260905093223 15 283 3.2 4.8 361.92 0.00 0.00 96 1009.7
20260905092723 15 0 0.0 0.0 361.92 0.00 0.00 96 1009.7
20260905092223 15 0 0.0 0.0 361.92 0.00 0.00 96 1009.6
20260905091724 15 0 0.0 0.0 361.92 0.00 0.00 95 1009.5
20260905091223 15 0 0.0 0.0 361.92 0.00 0.00 96 1009.6
20260905090723 15 0 0.0 0.0 361.92 0.00 0.00 95 1009.5
20260905090223 15 0 0.0 0.0 361.92 0.00 0.00 95 1009.5
20260905085722 15 0 0.0 0.0 361.92 0.00 0.00 95 1009.4
20260905085222 15 0 0.0 0.0 361.92 0.00 0.00 95 1009.4
20260905084723 15 0 0.0 0.0 361.92 0.00 0.00 95 1009.4
20260905084222 15 0 0.0 0.0 361.92 0.00 0.00 94 1009.5
20260905083722 15 0 0.0 0.0 361.92 0.00 0.00 94 1009.4
20260905083223 15 218 0.0 1.6 361.92 0.00 0.00 94 1009.4
20260905080722 16 249 0.0 1.6 361.92 0.00 0.00 91 1009.4
20260905080223 16 0 1.6 0.0 361.92 0.00 0.00 91 1009.4
20260905075722 16 297 0.0 4.8 361.92 0.00 0.00 90 1009.4
20260905075222 16 304 0.0 6.4 361.92 0.00 0.00 91 1009.4
20260905074723 16 293 3.2 4.8 361.92 0.00 0.00 91 1009.4
20260905073722 16 267 3.2 3.2 361.92 0.00 0.00 91 1009.6
20260905073223 16 291 0.0 6.4 361.92 0.00 0.00 92 1009.6
20260905072722 15 273 0.0 4.8 361.92 0.00 0.00 91 1009.6
20260905072222 15 298 1.6 4.8 361.92 0.00 0.00 91 1009.7
20260905071723 15 0 0.0 0.0 361.92 0.00 0.00 91 1009.7
20260905071222 16 34 0.0 3.2 361.92 0.00 0.00 91 1009.7
20260905070722 16 132 0.0 6.4 361.92 0.00 0.00 91 1009.6
20260905070223 16 256 3.2 1.6 361.92 0.00 0.00 91 1009.6
20260905065728 16 293 0.0 3.2 361.92 0.00 0.00 91 1009.7
20260905065222 16 84 0.0 3.2 361.92 0.00 0.00 91 1009.7
20260905064723 16 240 0.0 3.2 361.92 0.00 0.00 91 1009.7
20260905064222 16 297 0.0 6.4 361.92 0.00 0.00 91 1009.6
20260905063722 16 264 3.2 6.4 361.92 0.00 0.00 91 1009.7
20260905063223 16 266 3.2 6.4 361.92 0.00 0.00 91 1009.8
20260905062722 16 280 3.2 4.8 361.92 0.00 0.00 91 1010.0
20260905061723 16 277 4.8 6.4 361.92 0.00 0.00 91 1010.0
20260905060722 16 294 0.0 1.6 361.92 0.00 0.00 91 1010.1
20260905060223 16 288 0.0 6.4 361.92 0.00 0.00 91 1010.2
20260905055222 16 291 1.6 9.7 361.92 0.00 0.00 91 1010.3
20260905054723 16 285 0.0 3.2 361.92 0.00 0.00 90 1010.3
20260905054222 16 274 1.6 1.6 361.92 0.00 0.00 90 1010.3
20260905053232 16 0 0.0 0.0 361.92 0.00 0.00 90 1010.3
20260905052722 16 267 0.0 3.2 361.92 0.00 0.00 90 1010.4
20260905052222 16 298 0.0 4.8 361.92 0.00 0.00 90 1010.4
20260905051723 16 266 3.2 8.0 361.92 0.00 0.00 90 1010.4
20260905051222 16 269 3.2 6.4 361.92 0.00 0.00 90 1010.4
20260905050722 16 297 4.8 8.0 361.92 0.00 0.00 89 1010.4
20260905050228 16 246 3.2 4.8 361.92 0.00 0.00 89 1010.5
20260905045722 16 277 0.0 4.8 361.92 0.00 0.00 89 1010.4
20260905045222 16 270 3.2 8.0 361.92 0.00 0.00 89 1010.4
20260905044723 16 277 6.4 4.8 361.92 0.00 0.00 89 1010.4
20260905044222 16 287 3.2 6.4 361.92 0.00 0.00 89 1010.3
20260905043722 16 274 3.2 4.8 361.92 0.00 0.00 89 1010.3
20260905043226 17 288 4.8 4.8 361.92 0.00 0.00 89 1010.1
20260905042222 17 284 1.6 4.8 361.92 0.00 0.00 88 1010.1
20260905041723 17 291 3.2 4.8 361.92 0.00 0.00 88 1010.1
20260905041222 17 281 0.0 6.4 361.92 0.00 0.00 89 1010.2
20260905040223 17 285 3.2 8.0 361.92 0.00 0.00 91 1010.3
20260905035722 17 280 4.8 6.4 361.92 0.00 0.00 91 1010.3
20260905035222 17 297 1.6 8.0 361.92 0.00 0.00 91 1010.3
20260905034723 17 312 3.2 6.4 361.92 0.00 0.00 90 1010.2
20260905034224 17 284 4.8 4.8 361.92 0.00 0.00 90 1010.2
20260905033722 17 277 4.8 6.4 361.92 0.00 0.00 89 1010.2
20260905033223 17 0 0.0 0.0 361.92 0.00 0.00 89 1010.2
20260905032722 17 0 0.0 0.0 361.92 0.00 0.00 88 1010.3
20260905031723 17 314 1.6 3.2 361.92 0.00 0.00 88 1010.3
20260905030728 17 260 3.2 6.4 361.92 0.00 0.00 89 1010.3
20260905030223 17 283 1.6 6.4 361.92 0.00 0.00 89 1010.3
20260905025722 17 297 3.2 4.8 361.92 0.00 0.00 88 1010.4
20260905025222 17 280 3.2 3.2 361.92 0.00 0.00 89 1010.4
20260905024723 17 0 0.0 0.0 361.92 0.00 0.00 88 1010.4
20260905023723 17 291 0.0 1.6 361.92 0.00 0.00 87 1010.4
20260905023223 17 271 0.0 1.6 361.92 0.00 0.00 87 1010.5
20260905022722 17 285 0.0 1.6 361.92 0.00 0.00 88 1010.5
20260905021722 18 283 3.2 3.2 361.92 0.00 0.00 88 1010.5
20260905021222 18 287 3.2 6.4 361.92 0.00 0.00 88 1010.5
20260905020722 18 295 1.6 3.2 361.92 0.00 0.00 87 1010.5
20260905020227 18 301 0.0 3.2 361.92 0.00 0.00 87 1010.6
20260905015722 18 0 0.0 0.0 361.92 0.00 0.00 86 1010.6
20260905015222 18 308 0.0 3.2 361.92 0.00 0.00 87 1010.6
20260905014722 18 311 0.0 1.6 361.92 0.00 0.00 87 1010.7
20260905014222 18 0 0.0 0.0 361.92 0.00 0.00 86 1010.7
20260905013722 18 0 0.0 0.0 361.92 0.00 0.00 85 1010.7
20260905013223 18 0 0.0 0.0 361.92 0.00 0.00 85 1010.8
20260905012722 18 0 0.0 0.0 361.92 0.00 0.00 84 1010.7
20260905011722 19 291 0.0 3.2 361.92 0.00 0.00 82 1010.7
20260905011222 19 298 1.6 4.8 361.92 0.00 0.00 83 1010.8
20260905010722 19 285 3.2 4.8 361.92 0.00 0.00 82 1010.7
20260905010222 19 298 3.2 3.2 361.92 0.00 0.00 81 1010.7
20260905005722 19 266 3.2 6.4 361.92 0.00 0.00 80 1010.6
20260905005222 19 287 4.8 6.4 361.92 0.00 0.00 80 1010.6
20260905004722 19 280 4.8 6.4 361.92 0.00 0.00 80 1010.6
20260905003722 20 274 0.0 1.6 361.92 0.00 0.00 79 1010.5
20260905003223 20 300 0.0 3.2 361.92 0.00 0.00 79 1010.5
20260905002222 20 274 0.0 3.2 361.92 0.00 0.00 79 1010.5
20260905001722 20 307 0.0 3.2 361.92 0.00 0.00 77 1010.5
20260905001222 20 277 1.6 6.4 361.92 0.00 0.00 76 1010.5
20260905000722 20 0 1.6 0.0 361.92 0.00 0.00 77 1010.5
20260905000222 20 0 0.0 0.0 361.92 0.00 0.00 78 1010.4
20260904235722 20 0 0.0 0.0 361.92 0.00 0.00 78 1010.5
20260904235222 20 0 0.0 0.0 361.92 0.00 0.00 77 1010.3
20260904234722 20 287 0.0 4.8 361.92 0.00 0.00 76 1010.2
20260904234222 20 277 3.2 4.8 361.92 0.00 0.00 75 1010.2
20260904233722 21 267 3.2 4.8 361.92 0.00 0.00 75 1010.2
20260904232722 21 0 0.0 0.0 361.92 0.00 0.00 73 1010.1
20260904232222 21 297 0.0 1.6 361.92 0.00 0.00 72 1010.0
20260904231723 21 0 0.0 0.0 361.92 0.00 0.00 71 1010.0
20260904231222 22 0 0.0 0.0 361.92 0.00 0.00 71 1009.9
20260904230722 22 0 0.0 0.0 361.92 0.00 0.00 71 1009.9
20260904230231 22 0 0.0 0.0 361.92 0.00 0.00 70 1009.8
20260904224722 23 0 0.0 0.0 361.92 0.00 0.00 66 1009.9
20260904223223 23 0 0.0 0.0 361.92 0.00 0.00 66 1009.8
20260904222722 23 0 0.0 0.0 361.92 0.00 0.00 66 1009.7
20260904222221 24 0 0.0 0.0 361.92 0.00 0.00 66 1009.7
20260904221722 24 0 0.0 0.0 361.92 0.00 0.00 65 1009.7
20260904221221 24 255 0.0 3.2 361.92 0.00 0.00 62 1009.6
20260904220722 25 0 0.0 0.0 361.92 0.00 0.00 61 1009.7
20260904220222 25 295 0.0 0.0 361.92 0.00 0.00 62 1009.6
20260904215721 25 0 0.0 0.0 361.92 0.00 0.00 60 1009.6
20260904215222 25 0 0.0 0.0 361.92 0.00 0.00 60 1009.7
20260904214723 25 0 0.0 0.0 361.92 0.00 0.00 58 1009.6
20260904214221 25 0 0.0 0.0 361.92 0.00 0.00 58 1009.6
20260904213721 26 270 0.0 4.8 361.92 0.00 0.00 57 1009.6
20260904213222 26 245 0.0 6.4 361.92 0.00 0.00 55 1009.7
20260904212721 26 249 0.0 1.6 361.92 0.00 0.00 57 1009.7
20260904212221 26 60 0.0 3.2 361.92 0.00 0.00 54 1009.7
20260904211722 26 318 1.6 4.8 361.92 0.00 0.00 56 1009.6
20260904211221 26 32 0.0 3.2 361.92 0.00 0.00 58 1009.6
20260904210222 26 316 0.0 8.0 361.92 0.00 0.00 53 1009.6
20260904205721 26 359 1.6 1.6 361.92 0.00 0.00 54 1009.6
20260904204722 26 28 0.0 3.2 361.92 0.00 0.00 56 1009.5
20260904204221 26 28 1.6 1.6 361.92 0.00 0.00 56 1009.5
20260904203721 26 0 0.0 1.6 361.92 0.00 0.00 55 1009.5
20260904203222 26 34 0.0 3.2 361.92 0.00 0.00 56 1009.6
20260904202721 26 31 1.6 6.4 361.92 0.00 0.00 54 1009.6
20260904202221 26 28 0.0 4.8 361.92 0.00 0.00 53 1009.6
20260904201722 26 259 1.6 6.4 361.92 0.00 0.00 56 1009.7
20260904201221 26 264 1.6 6.4 361.92 0.00 0.00 54 1009.7
20260904200721 26 257 1.6 8.0 361.92 0.00 0.00 54 1009.6
20260904200222 25 316 3.2 4.8 361.92 0.00 0.00 57 1009.5
20260904195221 26 277 3.2 6.4 361.92 0.00 0.00 52 1009.7
20260904194722 26 284 0.0 9.7 361.92 0.00 0.00 54 1009.7
20260904194221 26 314 1.6 4.8 361.92 0.00 0.00 52 1009.7
20260904193721 26 259 3.2 6.4 361.92 0.00 0.00 51 1009.6
20260904193222 26 315 4.8 8.0 361.92 0.00 0.00 49 1009.6
20260904192221 27 278 1.6 8.0 361.92 0.00 0.00 48 1009.4
20260904191722 27 273 1.6 8.0 361.92 0.00 0.00 47 1009.5